CW1020 Weather Reports


time (UTC)temp
F
wind
direction
speed
knots
gust
knots
rain 1hr
in
rain 24hr
in
rain mn
in
humidity
%
barometer
mb
20260510170505 76 337 0.9 2.6 0.00 0.00 0.00 42 1018.3
20260510170005 76 338 0.9 1.7 0.00 0.00 0.00 43 1018.4
20260510165505 75 359 0.9 2.6 0.00 0.00 0.00 44 1018.4
20260510165005 74 47 1.7 3.5 0.00 0.00 0.00 45 1018.3
20260510164505 74 30 0.9 3.5 0.00 0.00 0.00 46 1018.3
20260510164005 73 32 0.9 2.6 0.00 0.00 0.00 46 1018.4
20260510163005 72 35 1.7 3.5 0.00 0.00 0.00 47 1018.4
20260510162506 71 25 0.9 3.5 0.00 0.00 0.00 49 1018.5
20260510162004 71 345 0.9 1.7 0.00 0.00 0.00 50 1018.5
20260510161005 70 341 0.9 3.5 0.00 0.00 0.00 50 1018.2
20260510160505 70 21 0.0 2.6 0.00 0.00 0.00 50 1018.3
20260510160005 69 45 0.9 0.9 0.00 0.00 0.00 51 1018.2
20260510155505 69 69 0.0 2.6 0.00 0.00 0.00 51 1018.3
20260510155005 68 0 0.0 0.0 0.00 0.00 0.00 52 1018.3
20260510154005 69 0 0.0 0.0 0.00 0.00 0.00 50 1018.4
20260510153505 68 0 0.0 0.0 0.00 0.00 0.00 51 1018.4
20260510153005 67 0 0.0 0.0 0.00 0.00 0.00 50 1018.4
20260510151505 65 0 0.0 0.0 0.00 0.00 0.00 53 1018.4
20260510151005 64 162 0.0 0.9 0.00 0.00 0.00 53 1018.4
20260510150506 63 162 0.0 0.9 0.00 0.00 0.00 55 1018.5
20260510150006 63 0 0.0 0.0 0.00 0.00 0.00 56 1018.4
20260510145505 62 0 0.0 0.0 0.00 0.00 0.00 58 1018.4
20260510145005 60 0 0.0 0.0 0.00 0.00 0.00 60 1018.5
20260510144505 59 0 0.0 0.0 0.00 0.00 0.00 61 1018.5
20260510144005 59 161 0.0 0.9 0.00 0.00 0.00 62 1018.5
20260510142503 57 170 0.0 0.9 0.00 0.00 0.00 63 1018.0
20260510142002 57 170 0.0 0.9 0.00 0.00 0.00 63 1018.0
20260510140503 57 170 0.0 0.9 0.00 0.00 0.00 63 1018.0
20260510140003 57 170 0.0 0.9 0.00 0.00 0.00 63 1018.0
20260510135503 57 170 0.0 0.9 0.00 0.00 0.00 63 1018.0
20260510135002 57 170 0.0 0.9 0.00 0.00 0.00 63 1018.0
20260510134503 57 170 0.0 0.9 0.00 0.00 0.00 63 1018.0
20260510132503 57 170 0.0 0.9 0.00 0.00 0.00 63 1018.0
20260510132002 57 170 0.0 0.9 0.00 0.00 0.00 63 1018.0
20260510131503 57 170 0.0 0.9 0.00 0.00 0.00 63 1018.0
20260510131002 57 170 0.0 0.9 0.00 0.00 0.00 63 1018.0
20260510130503 57 170 0.0 0.9 0.00 0.00 0.00 63 1018.0
20260510130003 57 170 0.0 0.9 0.00 0.00 0.00 63 1018.0
20260510125503 57 170 0.0 0.9 0.00 0.00 0.00 63 1018.0
20260510125002 57 170 0.0 0.9 0.00 0.00 0.00 63 1018.0
20260510124503 57 170 0.0 0.9 0.00 0.00 0.00 63 1018.0
20260510124004 57 170 0.0 0.9 0.00 0.00 0.00 63 1018.0
20260510123503 57 170 0.0 0.9 0.00 0.00 0.00 63 1018.0
20260510123002 57 170 0.0 0.9 0.00 0.00 0.00 63 1018.0
20260510122003 57 170 0.0 0.9 0.00 0.00 0.00 63 1018.0
20260510121002 57 170 0.0 0.9 0.00 0.00 0.00 63 1018.0
20260510120503 57 170 0.0 0.9 0.00 0.00 0.00 63 1018.0
20260510120002 57 170 0.0 0.9 0.00 0.00 0.00 63 1018.0
20260510115503 57 170 0.0 0.9 0.00 0.00 0.00 63 1018.0
20260510115002 57 170 0.0 0.9 0.00 0.00 0.00 63 1018.0
20260510114503 57 170 0.0 0.9 0.00 0.00 0.00 63 1018.0
20260510114002 57 170 0.0 0.9 0.00 0.00 0.00 63 1018.0
20260510113503 57 170 0.0 0.9 0.00 0.00 0.00 63 1018.0
20260510113003 57 170 0.0 0.9 0.00 0.00 0.00 63 1018.0
20260510112004 57 170 0.0 0.9 0.00 0.00 0.00 63 1018.0
20260510111502 57 170 0.0 0.9 0.00 0.00 0.00 63 1018.0
20260510111003 57 170 0.0 0.9 0.00 0.00 0.00 63 1018.0
20260510110502 57 170 0.0 0.9 0.00 0.00 0.00 63 1018.0
20260510104003 57 170 0.0 0.9 0.00 0.00 0.00 63 1018.0
20260510103503 57 170 0.0 0.9 0.00 0.00 0.00 63 1018.0
20260510103003 57 170 0.0 0.9 0.00 0.00 0.00 63 1018.0
20260510102503 57 170 0.0 0.9 0.00 0.00 0.00 63 1018.0
20260510102003 57 170 0.0 0.9 0.00 0.00 0.00 63 1018.0
20260510101503 57 170 0.0 0.9 0.00 0.00 0.00 63 1018.0
20260510101003 57 170 0.0 0.9 0.00 0.00 0.00 63 1018.0
20260510095503 57 170 0.0 0.9 0.00 0.00 0.00 63 1018.0
20260510094503 57 170 0.0 0.9 0.00 0.00 0.00 63 1018.0
20260510094002 57 170 0.0 0.9 0.00 0.00 0.00 63 1018.0
20260510093503 57 170 0.0 0.9 0.00 0.00 0.00 63 1018.0
20260510092503 57 170 0.0 0.9 0.00 0.00 0.00 63 1018.0
20260510092002 57 170 0.0 0.9 0.00 0.00 0.00 63 1018.0
20260510091503 57 170 0.0 0.9 0.00 0.00 0.00 63 1018.0
20260510091002 57 170 0.0 0.9 0.00 0.00 0.00 63 1018.0
20260510090503 57 170 0.0 0.9 0.00 0.00 0.00 63 1018.0
20260510090002 57 170 0.0 0.9 0.00 0.00 0.00 63 1018.0
20260510085503 57 170 0.0 0.9 0.00 0.00 0.00 63 1018.0
20260510085002 57 170 0.0 0.9 0.00 0.00 0.00 63 1018.0
20260510084503 57 170 0.0 0.9 0.00 0.00 0.00 63 1018.0
20260510084003 57 170 0.0 0.9 0.00 0.00 0.00 63 1018.0
20260510083503 57 170 0.0 0.9 0.00 0.00 0.00 63 1018.0
20260510083003 57 170 0.0 0.9 0.00 0.00 0.00 63 1018.0
20260510082503 57 170 0.0 0.9 0.00 0.00 0.00 63 1018.0
20260510081003 57 170 0.0 0.9 0.00 0.00 0.00 63 1018.0
20260510080502 57 170 0.0 0.9 0.00 0.00 0.00 63 1018.0
20260510080003 57 170 0.0 0.9 0.00 0.00 0.00 63 1018.0
20260510075502 57 170 0.0 0.9 0.00 0.00 0.00 63 1018.0
20260510075003 57 170 0.0 0.9 0.00 0.00 0.00 63 1018.0
20260510074503 57 170 0.0 0.9 0.00 0.00 0.00 63 1018.0
20260510074003 57 170 0.0 0.9 0.00 0.00 0.00 63 1018.0
20260510073503 57 170 0.0 0.9 0.00 0.00 0.00 63 1018.0
20260510072503 57 170 0.0 0.9 0.00 0.00 0.00 63 1018.0
20260510072003 57 171 0.0 0.9 0.00 0.00 0.00 63 1017.9
20260510071503 57 0 0.0 0.0 0.00 0.00 0.00 63 1017.9
20260510071003 57 0 0.0 0.0 0.00 0.00 0.00 63 1017.9
20260510070503 57 0 0.0 0.0 0.00 0.00 0.00 63 1018.0
20260510070004 58 171 0.0 0.9 0.00 0.00 0.00 63 1018.1
20260510065503 58 0 0.0 0.0 0.00 0.00 0.00 63 1018.0
20260510065004 58 171 0.0 0.9 0.00 0.00 0.00 63 1018.0
20260510064503 58 171 0.0 0.9 0.00 0.00 0.00 63 1018.0
20260510064003 58 172 0.0 1.7 0.00 0.00 0.00 64 1018.0
20260510063503 58 0 0.0 0.0 0.00 0.00 0.00 64 1018.0
20260510062003 59 0 0.0 0.0 0.00 0.00 0.00 62 1018.0
20260510061503 59 0 0.0 0.0 0.00 0.00 0.00 61 1018.0
20260510061003 60 0 0.0 0.0 0.00 0.00 0.00 59 1018.0
20260510060503 60 0 0.0 0.0 0.00 0.00 0.00 58 1018.1
20260510055503 60 158 0.9 3.5 0.00 0.00 0.00 56 1017.9
20260510055002 60 162 0.9 1.7 0.00 0.00 0.00 56 1018.0
20260510054503 60 165 0.9 2.6 0.00 0.00 0.00 57 1017.9
20260510053004 61 162 0.0 2.6 0.00 0.00 0.00 57 1018.0
20260510052503 61 0 0.0 0.0 0.00 0.00 0.00 58 1017.9
20260510052003 61 0 0.0 0.0 0.00 0.00 0.00 58 1017.8
20260510051503 61 0 0.0 0.0 0.00 0.00 0.00 57 1017.9
20260510051003 62 0 0.0 0.0 0.00 0.00 0.00 57 1017.9
20260510050503 62 173 0.9 1.7 0.00 0.00 0.00 57 1017.9
20260510050003 62 170 0.9 3.5 0.00 0.00 0.00 57 1017.9
20260510045503 62 170 0.0 3.5 0.00 0.00 0.00 56 1018.0
20260510045003 63 0 0.0 0.0 0.00 0.00 0.00 56 1017.8
20260510044503 63 0 0.0 0.0 0.00 0.00 0.00 55 1017.9
20260510044003 63 0 0.0 0.0 0.00 0.00 0.00 55 1017.8
20260510043503 64 0 0.0 0.0 0.00 0.00 0.00 55 1017.7
20260510043003 64 0 0.0 0.0 0.00 0.00 0.00 54 1017.6
20260510042504 64 0 0.0 0.0 0.00 0.00 0.00 54 1017.6
20260510042003 65 0 0.0 0.0 0.00 0.00 0.00 54 1017.5
20260510041503 65 0 0.0 0.0 0.00 0.00 0.00 54 1017.5
20260510041003 65 0 0.9 0.0 0.00 0.00 0.00 54 1017.4
20260510040503 66 252 1.7 2.6 0.00 0.00 0.00 54 1017.6
20260510040003 66 252 2.6 2.6 0.00 0.00 0.00 54 1017.5
20260510035503 66 259 2.6 3.5 0.00 0.00 0.00 53 1017.5
20260510035004 66 267 2.6 3.5 0.00 0.00 0.00 52 1017.4
20260510034503 67 263 2.6 3.5 0.00 0.00 0.00 52 1017.4
20260510034003 67 260 2.6 6.1 0.00 0.00 0.00 51 1017.5
20260510033503 67 252 3.5 4.3 0.00 0.00 0.00 50 1017.4
20260510033005 67 253 3.5 4.3 0.00 0.00 0.00 50 1017.4
20260510032503 68 249 4.3 4.3 0.00 0.00 0.00 49 1017.3
20260510032003 68 260 6.1 6.1 0.00 0.00 0.00 49 1017.2
20260510031503 68 269 7.0 8.7 0.00 0.00 0.00 48 1017.1
20260510031003 68 261 5.2 8.7 0.00 0.00 0.00 47 1016.9
20260510030503 69 266 5.2 6.1 0.00 0.00 0.00 47 1017.0
20260510030004 69 257 5.2 7.8 0.00 0.00 0.00 46 1016.8
20260510025504 69 268 5.2 7.0 0.00 0.00 0.00 46 1016.8
20260510024005 70 250 5.2 7.8 0.00 0.00 0.00 46 1016.8
20260510023503 70 249 2.6 7.0 0.00 0.00 0.00 47 1016.8
20260510023004 70 259 2.6 8.7 0.00 0.00 0.00 49 1016.7
20260510022503 70 262 4.3 5.2 0.00 0.00 0.00 50 1016.7
20260510022003 70 271 3.5 7.8 0.00 0.00 0.00 49 1016.7
20260510021503 70 315 3.5 7.0 0.00 0.00 0.00 48 1016.7
20260510021003 71 313 4.3 5.2 0.00 0.00 0.00 48 1016.5
20260510020503 71 290 5.2 8.7 0.00 0.00 0.00 48 1016.5
20260510020004 71 301 6.1 8.7 0.00 0.00 0.00 48 1016.5
20260510015503 71 305 7.0 8.7 0.00 0.00 0.00 48 1016.4
20260510015003 72 305 7.0 10.4 0.00 0.00 0.00 48 1016.4
20260510014504 72 311 6.1 12.2 0.00 0.00 0.00 48 1016.4
20260510014003 72 306 7.0 8.7 0.00 0.00 0.00 48 1016.4
20260510013503 72 310 7.0 9.6 0.00 0.00 0.00 48 1016.2
20260510013003 72 301 7.8 11.3 0.00 0.00 0.00 48 1016.2
20260510012504 72 299 7.8 10.4 0.00 0.00 0.00 48 1016.2
20260510012003 72 318 7.8 11.3 0.00 0.00 0.00 47 1016.2
20260510011504 73 307 7.8 12.2 0.00 0.00 0.00 47 1016.2
20260510011003 73 312 7.0 11.3 0.00 0.00 0.00 46 1016.2
20260510010503 73 312 7.8 12.2 0.00 0.00 0.00 46 1016.2
20260510010004 73 313 7.8 10.4 0.00 0.00 0.00 45 1016.2
20260510005503 73 314 7.8 13.9 0.00 0.00 0.00 45 1016.1
20260510004004 74 298 7.8 10.4 0.00 0.00 0.00 45 1016.1
20260510003503 74 316 7.0 11.3 0.00 0.00 0.00 44 1016.0
20260510003004 74 315 8.7 11.3 0.00 0.00 0.00 44 1016.1
20260510002503 74 313 10.4 12.2 0.00 0.00 0.00 43 1016.1
20260510002003 74 311 9.6 13.0 0.00 0.00 0.00 42 1016.1
20260510001504 74 319 9.6 13.0 0.00 0.00 0.00 42 1016.0
20260510001003 75 310 9.6 13.0 0.00 0.00 0.00 42 1016.1
20260510000504 74 311 9.6 14.8 0.00 0.00 0.00 42 1016.1
20260510000004 74 315 9.6 13.9 0.00 0.00 0.00 42 1016.1
20260509235503 74 315 10.4 14.8 0.00 0.00 0.00 42 1016.1
20260509235003 75 320 9.6 15.6 0.00 0.00 0.00 42 1016.1
20260509234503 74 308 9.6 14.8 0.00 0.00 0.00 42 1016.0
20260509233503 74 311 9.6 15.6 0.00 0.00 0.00 42 1016.1
20260509233004 74 311 9.6 13.0 0.00 0.00 0.00 43 1016.0
20260509232004 75 309 10.4 12.2 0.00 0.00 0.00 42 1016.0
20260509230504 75 311 9.6 15.6 0.00 0.00 0.00 42 1016.1
20260509230004 75 319 8.7 13.9 0.00 0.00 0.00 42 1016.1
20260509225503 75 319 8.7 14.8 0.00 0.00 0.00 42 1016.2
20260509225006 75 314 9.6 13.0 0.00 0.00 0.00 41 1016.1
20260509224503 75 318 9.6 15.6 0.00 0.00 0.00 43 1016.2
20260509224004 75 315 10.4 13.0 0.00 0.00 0.00 42 1016.2
20260509223004 75 314 10.4 16.5 0.00 0.00 0.00 42 1016.3
20260509222003 75 322 9.6 17.4 0.00 0.00 0.00 42 1016.3
20260509221504 75 315 9.6 13.9 0.00 0.00 0.00 42 1016.4
20260509220504 75 321 9.6 12.2 0.00 0.00 0.00 42 1016.6
20260509220004 75 317 9.6 13.0 0.00 0.00 0.00 42 1016.5
20260509215504 75 319 9.6 12.2 0.00 0.00 0.00 42 1016.7
20260509215003 75 319 10.4 17.4 0.00 0.00 0.00 42 1016.7
20260509213503 75 320 9.6 16.5 0.00 0.00 0.00 43 1016.8
20260509213004 75 320 9.6 15.6 0.00 0.00 0.00 44 1016.8
20260509212502 75 320 9.6 14.8 0.00 0.00 0.00 43 1016.9
20260509212002 75 321 9.6 16.5 0.00 0.00 0.00 43 1017.0
20260509211002 75 322 9.6 15.6 0.00 0.00 0.00 44 1016.9
20260509210502 75 321 9.6 14.8 0.00 0.00 0.00 44 1017.0
20260509210003 75 319 8.7 13.0 0.00 0.00 0.00 45 1017.0
20260509205503 74 318 8.7 11.3 0.00 0.00 0.00 44 1017.1
20260509205003 74 317 8.7 13.9 0.00 0.00 0.00 44 1017.0
20260509204502 75 323 8.7 15.6 0.00 0.00 0.00 44 1017.1
20260509204002 75 321 7.8 17.4 0.00 0.00 0.00 44 1017.1
20260509203503 75 322 7.0 13.9 0.00 0.00 0.00 43 1017.1
20260509203002 75 319 7.0 11.3 0.00 0.00 0.00 44 1017.3
20260509202502 74 323 7.8 13.0 0.00 0.00 0.00 45 1017.3
20260509202002 74 320 7.8 13.0 0.00 0.00 0.00 44 1017.2
20260509201502 74 323 7.8 12.2 0.00 0.00 0.00 45 1017.2
20260509200503 73 319 8.7 11.3 0.00 0.00 0.00 45 1017.3
20260509200002 73 317 8.7 14.8 0.00 0.00 0.00 45 1017.2
20260509195502 74 321 8.7 13.9 0.00 0.00 0.00 44 1017.4
20260509195002 73 319 8.7 14.8 0.00 0.00 0.00 46 1017.4
20260509194003 73 320 9.6 13.0 0.00 0.00 0.00 46 1017.4
20260509193503 72 322 9.6 13.9 0.00 0.00 0.00 46 1017.5
20260509193003 72 318 9.6 13.9 0.00 0.00 0.00 46 1017.6
20260509192002 72 316 8.7 13.0 0.00 0.00 0.00 46 1017.6
20260509191502 72 318 8.7 13.9 0.00 0.00 0.00 46 1017.6
20260509191002 72 320 8.7 12.2 0.00 0.00 0.00 46 1017.7
20260509190502 72 324 7.8 13.9 0.00 0.00 0.00 45 1017.7
20260509190002 73 325 7.0 13.0 0.00 0.00 0.00 45 1017.7
20260509185502 72 323 6.1 10.4 0.00 0.00 0.00 46 1017.7
20260509185004 72 329 6.1 12.2 0.00 0.00 0.00 46 1017.8
20260509184502 72 325 6.1 9.6 0.00 0.00 0.00 45 1017.9
20260509184002 72 320 5.2 11.3 0.00 0.00 0.00 45 1018.0
20260509183502 72 325 5.2 8.7 0.00 0.00 0.00 45 1018.0
20260509182502 71 324 5.2 8.7 0.00 0.00 0.00 46 1018.2
20260509182002 71 323 6.1 10.4 0.00 0.00 0.00 44 1018.2
20260509181503 70 318 7.0 11.3 0.00 0.00 0.00 45 1018.3
20260509181002 70 322 6.1 10.4 0.00 0.00 0.00 45 1018.0
20260509180503 70 319 6.1 10.4 0.00 0.00 0.00 45 1018.1
20260509180003 70 323 6.1 9.6 0.00 0.00 0.00 45 1018.1
20260509175503 69 322 7.0 10.4 0.00 0.00 0.00 44 1018.1
20260509175002 69 322 7.0 12.2 0.00 0.00 0.00 46 1018.1
20260509174503 69 323 6.1 11.3 0.00 0.00 0.00 45 1018.1
20260509173502 68 316 7.8 11.3 0.00 0.00 0.00 47 1018.1
20260509173002 68 320 7.0 12.2 0.00 0.00 0.00 47 1018.1
20260509172503 68 317 6.1 10.4 0.00 0.00 0.00 47 1018.1
20260509172002 68 321 6.1 12.2 0.00 0.00 0.00 47 1018.1
20260509171002 68 319 6.1 11.3 0.00 0.00 0.00 48 1018.0